When you browse on this site, cookies collect data to enhance your experience and personalize the content and advertising you see.
Visit our Privacy Policy to learn more. By continuing to use the site, you agree to this use of cookies and data.
  • în România
  • Lista ţărilor
  • Pe 7 zile
  • Temperatura apei
  • Meteo pe hartă
  • Widget-uri
  • user-avatar
    Intrare

    Meteo pe oră la Shkoder

    Astăzi, 25 Ianuarie, Sâmbătă

    Timp Temperatura Precipitaţii Vânt Presiune Umiditate
    00:00 +9°C° 0 mm 1 m/s 748 mmHg 87%
    01:00 +9°C° 0 mm 1 m/s 748 mmHg 88%
    02:00 +9°C° 0 mm 1 m/s 748 mmHg 88%
    03:00 +9°C° 0 mm 1 m/s 748 mmHg 87%
    04:00 +9°C° 0 mm 1 m/s 747 mmHg 87%
    05:00 +9°C° 0 mm 1 m/s 747 mmHg 87%
    06:00 +9°C° 0 mm 1 m/s 747 mmHg 86%
    07:00 +9°C° 0 mm 1 m/s 747 mmHg 89%
    08:00 +10°C° 0 mm 1 m/s 747 mmHg 87%
    09:00 +10°C° 0 mm 1 m/s 747 mmHg 86%
    10:00 +11°C° 0 mm 1 m/s 747 mmHg 84%
    11:00 +11°C° 0.1 mm 1 m/s 747 mmHg 85%
    12:00 +11°C° 0.1 mm 1 m/s 746 mmHg 86%
    13:00 +10°C° 0.1 mm 1 m/s 746 mmHg 87%
    14:00 +10°C° 0.2 mm 1 m/s 746 mmHg 88%
    15:00 +10°C° 0.2 mm 1 m/s 746 mmHg 89%
    16:00 +10°C° 0.2 mm 1 m/s 745 mmHg 90%
    17:00 +10°C° 0.3 mm 1 m/s 746 mmHg 91%
    18:00 +10°C° 0.3 mm 1 m/s 746 mmHg 92%
    19:00 +10°C° 0.3 mm 1 m/s 746 mmHg 92%
    20:00 +10°C° 0.5 mm 1 m/s 746 mmHg 93%
    21:00 +10°C° 0.5 mm 1 m/s 746 mmHg 94%
    22:00 +10°C° 0.5 mm 1 m/s 746 mmHg 94%
    23:00 +10°C° 0.8 mm 1 m/s 746 mmHg 95%

    Mâine, 26 Ianuarie, Duminică

    Timp Temperatura Precipitaţii Vânt Presiune Umiditate
    00:00 +10°C° 0.8 mm 1 m/s 746 mmHg 95%
    01:00 +10°C° 0.8 mm 1 m/s 745 mmHg 96%
    02:00 +10°C° 0.9 mm 1 m/s 745 mmHg 95%
    03:00 +10°C° 0.9 mm 1 m/s 745 mmHg 94%
    04:00 +10°C° 0.9 mm 1 m/s 744 mmHg 93%
    05:00 +10°C° 0.4 mm 1 m/s 744 mmHg 93%
    06:00 +10°C° 0.4 mm 1 m/s 744 mmHg 92%
    07:00 +10°C° 0.4 mm 1 m/s 744 mmHg 92%
    08:00 +11°C° 0.2 mm 1 m/s 744 mmHg 88%
    09:00 +11°C° 0.2 mm 1 m/s 745 mmHg 84%
    10:00 +12°C° 0.2 mm 1 m/s 745 mmHg 80%
    11:00 +13°C° 0.1 mm 1 m/s 744 mmHg 77%
    12:00 +13°C° 0.1 mm 1 m/s 744 mmHg 74%
    13:00 +14°C° 0.1 mm 1 m/s 743 mmHg 71%
    14:00 +13°C° 0.4 mm 1 m/s 743 mmHg 76%
    15:00 +12°C° 0.4 mm 1 m/s 743 mmHg 82%
    16:00 +12°C° 0.4 mm 1 m/s 742 mmHg 87%
    17:00 +11°C° 0.2 mm 1 m/s 742 mmHg 86%
    18:00 +11°C° 0.2 mm 1 m/s 742 mmHg 86%
    19:00 +11°C° 0.2 mm 1 m/s 742 mmHg 85%
    20:00 +11°C° 1.9 mm 1 m/s 742 mmHg 87%
    21:00 +10°C° 1.9 mm 1 m/s 742 mmHg 90%
    22:00 +9°C° 1.9 mm 2 m/s 742 mmHg 93%
    23:00 +9°C° 4 mm 2 m/s 742 mmHg 93%

    Poimâine, 27 Ianuarie, Luni

    Timp Temperatura Precipitaţii Vânt Presiune Umiditate
    00:00 +9°C° 4 mm 2 m/s 741 mmHg 94%
    01:00 +8°C° 4 mm 2 m/s 741 mmHg 94%
    02:00 +8°C° 2.1 mm 2 m/s 741 mmHg 94%
    03:00 +8°C° 2.1 mm 2 m/s 741 mmHg 93%
    04:00 +8°C° 2.1 mm 2 m/s 740 mmHg 92%
    05:00 +8°C° 0.2 mm 2 m/s 740 mmHg 91%
    06:00 +9°C° 0.2 mm 1 m/s 740 mmHg 90%
    07:00 +9°C° 0.2 mm 1 m/s 740 mmHg 89%
    08:00 +9°C° 0 mm 1 m/s 740 mmHg 86%
    09:00 +10°C° 0 mm 1 m/s 740 mmHg 84%
    10:00 +11°C° 0 mm 1 m/s 740 mmHg 82%
    11:00 +11°C° 0 mm 1 m/s 740 mmHg 80%
    12:00 +11°C° 0 mm 1 m/s 740 mmHg 78%
    13:00 +12°C° 0 mm 1 m/s 739 mmHg 76%
    14:00 +12°C° 0 mm 1 m/s 739 mmHg 78%
    15:00 +11°C° 0 mm 1 m/s 739 mmHg 81%
    16:00 +11°C° 0 mm 1 m/s 739 mmHg 83%
    17:00 +10°C° 0 mm 1 m/s 739 mmHg 84%
    18:00 +10°C° 0 mm 1 m/s 740 mmHg 84%
    19:00 +9°C° 0 mm 1 m/s 740 mmHg 85%
    20:00 +8°C° 0 mm 1 m/s 740 mmHg 84%
    21:00 +8°C° 0 mm 1 m/s 740 mmHg 83%
    22:00 +8°C° 0 mm 1 m/s 740 mmHg 82%
    23:00 +8°C° 0 mm 1 m/s 740 mmHg 82%

    28 Ianuarie, Marţi

    Timp Temperatura Precipitaţii Vânt Presiune Umiditate
    00:00 +7°C° 0 mm 1 m/s 740 mmHg 81%
    01:00 +7°C° 0 mm 1 m/s 739 mmHg 81%
    02:00 +7°C° 0 mm 1 m/s 739 mmHg 82%
    03:00 +7°C° 0 mm 1 m/s 739 mmHg 82%
    04:00 +7°C° 0 mm 1 m/s 739 mmHg 83%
    05:00 +7°C° 0 mm 1 m/s 739 mmHg 84%
    06:00 +7°C° 0 mm 1 m/s 739 mmHg 85%
    07:00 +7°C° 0 mm 1 m/s 739 mmHg 86%
    08:00 +8°C° 0 mm 1 m/s 739 mmHg 86%
    09:00 +8°C° 0 mm 1 m/s 739 mmHg 86%
    10:00 +9°C° 0 mm 1 m/s 739 mmHg 87%
    11:00 +9°C° 0.1 mm 2 m/s 739 mmHg 87%
    12:00 +9°C° 0.1 mm 2 m/s 738 mmHg 87%
    13:00 +10°C° 0.1 mm 2 m/s 738 mmHg 87%
    14:00 +9°C° 0.3 mm 2 m/s 738 mmHg 89%
    15:00 +9°C° 0.3 mm 3 m/s 738 mmHg 91%
    16:00 +9°C° 0.3 mm 3 m/s 737 mmHg 92%
    17:00 +9°C° 0.6 mm 3 m/s 738 mmHg 93%
    18:00 +9°C° 0.6 mm 3 m/s 738 mmHg 93%
    19:00 +9°C° 0.6 mm 3 m/s 738 mmHg 94%
    20:00 +9°C° 0.8 mm 3 m/s 738 mmHg 94%
    21:00 +9°C° 0.8 mm 3 m/s 738 mmHg 94%
    22:00 +9°C° 0.8 mm 3 m/s 738 mmHg 94%
    23:00 +9°C° 0.8 mm 3 m/s 737 mmHg 94%

    29 Ianuarie, Miercuri

    Timp Temperatura Precipitaţii Vânt Presiune Umiditate
    00:00 +8°C° 0.8 mm 4 m/s 737 mmHg 94%
    01:00 +8°C° 0.8 mm 4 m/s 737 mmHg 93%
    02:00 +8°C° 0.7 mm 4 m/s 736 mmHg 93%
    03:00 +8°C° 0.7 mm 4 m/s 736 mmHg 92%
    04:00 +8°C° 0.7 mm 4 m/s 736 mmHg 92%
    05:00 +8°C° 0.7 mm 4 m/s 736 mmHg 92%
    06:00 +8°C° 0.7 mm 4 m/s 736 mmHg 92%
    07:00 +8°C° 0.7 mm 4 m/s 736 mmHg 93%
    08:00 +10°C° 0.5 mm 4 m/s 736 mmHg 92%
    09:00 +10°C° 0.5 mm 4 m/s 736 mmHg 91%
    10:00 +10°C° 0.5 mm 3 m/s 736 mmHg 90%
    11:00 +10°C° 0.4 mm 4 m/s 736 mmHg 88%
    12:00 +11°C° 0.4 mm 4 m/s 735 mmHg 86%
    13:00 +11°C° 0.4 mm 4 m/s 735 mmHg 84%
    14:00 +11°C° 0.6 mm 3 m/s 735 mmHg 85%
    15:00 +10°C° 0.6 mm 3 m/s 735 mmHg 86%
    16:00 +10°C° 0.6 mm 2 m/s 735 mmHg 87%
    17:00 +10°C° 0.4 mm 2 m/s 735 mmHg 87%
    18:00 +9°C° 0.4 mm 2 m/s 736 mmHg 87%
    19:00 +10°C° 0.4 mm 1 m/s 736 mmHg 87%
    20:00 +10°C° 0.2 mm 1 m/s 736 mmHg 87%
    21:00 +9°C° 0.2 mm 1 m/s 737 mmHg 87%
    22:00 +9°C° 0.2 mm 1 m/s 737 mmHg 87%
    23:00 +9°C° 0.1 mm 1 m/s 737 mmHg 87%

    30 Ianuarie, Joi

    Timp Temperatura Precipitaţii Vânt Presiune Umiditate
    00:00 +8°C° 0.1 mm 1 m/s 737 mmHg 87%
    01:00 +8°C° 0.1 mm 1 m/s 737 mmHg 87%
    02:00 +8°C° 0 mm 1 m/s 737 mmHg 87%
    03:00 +7°C° 0 mm 1 m/s 738 mmHg 87%
    04:00 +7°C° 0 mm 1 m/s 738 mmHg 86%
    05:00 +7°C° 0 mm 1 m/s 738 mmHg 87%
    06:00 +7°C° 0 mm 1 m/s 738 mmHg 87%
    07:00 +7°C° 0 mm 1 m/s 739 mmHg 87%
    08:00 +8°C° 0 mm 1 m/s 739 mmHg 84%
    09:00 +8°C° 0 mm 1 m/s 740 mmHg 81%
    10:00 +9°C° 0 mm 1 m/s 740 mmHg 78%
    11:00 +10°C° 0.1 mm 1 m/s 740 mmHg 74%
    12:00 +10°C° 0.1 mm 1 m/s 741 mmHg 69%
    13:00 +11°C° 0.1 mm 1 m/s 741 mmHg 65%
    14:00 +11°C° 0 mm 1 m/s 741 mmHg 65%
    15:00 +11°C° 0 mm 1 m/s 741 mmHg 65%
    16:00 +10°C° 0 mm 1 m/s 742 mmHg 66%
    17:00 +9°C° 0 mm 1 m/s 742 mmHg 67%
    18:00 +8°C° 0 mm 1 m/s 743 mmHg 68%
    19:00 +6°C° 0 mm 2 m/s 743 mmHg 69%
    20:00 +6°C° 0 mm 2 m/s 743 mmHg 68%
    21:00 +6°C° 0 mm 2 m/s 744 mmHg 67%
    22:00 +6°C° 0 mm 1 m/s 744 mmHg 66%
    23:00 +6°C° 0 mm 1 m/s 744 mmHg 66%
    Arată mai mult